Time,TemperatureF,DewpointF,PressureIn,WindDirection,WindDirectionDegrees,WindSpeedMPH,WindSpeedGustMPH,Humidity,HourlyPrecipIn,Conditions,Clouds,dailyrainin,SoftwareType,DateUTC
2013-02-01 00:01:00,20.0,16.0,-100.00,NNW,330,1.0,3.0,84,-99.99,,,-99.99,,2013-02-01 07:01:00,
2013-02-01 00:12:00,20.0,16.0,-100.00,NNW,345,2.0,3.0,85,-99.99,,,-99.99,,2013-02-01 07:12:00,
2013-02-01 00:22:00,20.0,16.0,-100.00,NNW,345,2.0,3.0,85,-99.99,,,-99.99,,2013-02-01 07:22:00,
2013-02-01 00:32:00,20.0,16.0,-100.00,NNW,340,0.0,2.0,85,-99.99,,,-99.99,,2013-02-01 07:32:00,
2013-02-01 00:41:00,18.0,15.0,-100.00,South,190,2.0,4.0,86,-99.99,,,-99.99,,2013-02-01 07:41:00,
2013-02-01 00:51:00,19.0,15.0,-100.00,South,190,0.0,2.0,87,-99.99,,,-99.99,,2013-02-01 07:51:00,
2013-02-01 01:01:00,19.0,16.0,-100.00,South,190,0.0,1.0,87,-99.99,,,-99.99,,2013-02-01 08:01:00,
2013-02-01 01:11:00,18.0,15.0,-100.00,South,190,1.0,1.0,87,-99.99,,,-99.99,,2013-02-01 08:11:00,
2013-02-01 01:21:00,18.0,15.0,-100.00,WSW,245,1.0,2.0,87,-99.99,,,-99.99,,2013-02-01 08:21:00,
2013-02-01 01:31:00,18.0,15.0,-100.00,WSW,245,0.0,2.0,87,-99.99,,,-99.99,,2013-02-01 08:31:00,
2013-02-01 01:42:00,18.0,15.0,-100.00,SW,235,0.0,2.0,87,-99.99,,,-99.99,,2013-02-01 08:42:00,
2013-02-01 01:52:00,17.0,14.0,-100.00,WNW,295,3.0,4.0,87,-99.99,,,-99.99,,2013-02-01 08:52:00,
2013-02-01 02:01:00,17.0,14.0,-100.00,WNW,295,1.0,3.0,87,-99.99,,,-99.99,,2013-02-01 09:01:00,
2013-02-01 02:11:00,17.0,14.0,-100.00,NW,305,2.0,4.0,87,-99.99,,,-99.99,,2013-02-01 09:11:00,
2013-02-01 02:21:00,17.0,14.0,-100.00,West,270,4.0,4.0,87,-99.99,,,-99.99,,2013-02-01 09:21:00,
2013-02-01 02:32:00,17.0,14.0,-100.00,West,265,2.0,3.0,87,-99.99,,,-99.99,,2013-02-01 09:32:00,
2013-02-01 02:41:00,18.0,15.0,-100.00,West,265,0.0,1.0,88,-99.99,,,-99.99,,2013-02-01 09:41:00,
2013-02-01 02:51:00,18.0,15.0,-100.00,SW,225,2.0,2.0,88,-99.99,,,-99.99,,2013-02-01 09:51:00,
2013-02-01 03:01:00,16.0,13.0,-100.00,South,190,6.0,8.0,88,-99.99,,,-99.99,,2013-02-01 10:01:00,
2013-02-01 03:11:00,15.0,13.0,-100.00,SSW,205,5.0,7.0,88,-99.99,,,-99.99,,2013-02-01 10:11:00,
2013-02-01 03:21:00,16.0,13.0,-100.00,SSW,210,5.0,6.0,88,-99.99,,,-99.99,,2013-02-01 10:21:00,
2013-02-01 03:31:00,16.0,13.0,-100.00,SSW,195,4.0,7.0,88,-99.99,,,-99.99,,2013-02-01 10:31:00,
2013-02-01 03:42:00,17.0,14.0,-100.00,South,175,6.0,10.0,88,-99.99,,,-99.99,,2013-02-01 10:42:00,
2013-02-01 03:52:00,18.0,15.0,-100.00,SSE,165,8.0,12.0,88,-99.99,,,-99.99,,2013-02-01 10:52:00,
2013-02-01 04:01:00,18.0,15.0,-100.00,South,185,5.0,9.0,88,-99.99,,,-99.99,,2013-02-01 11:01:00,
2013-02-01 04:11:00,18.0,15.0,-100.00,South,190,4.0,4.0,88,-99.99,,,-99.99,,2013-02-01 11:11:00,
2013-02-01 04:22:00,18.0,15.0,-100.00,ESE,110,4.0,6.0,88,-99.99,,,-99.99,,2013-02-01 11:22:00,
2013-02-01 04:32:00,18.0,15.0,-100.00,ESE,115,7.0,7.0,88,-99.99,,,-99.99,,2013-02-01 11:32:00,
2013-02-01 04:41:00,19.0,16.0,-100.00,SSE,150,4.0,9.0,87,-99.99,,,-99.99,,2013-02-01 11:41:00,
2013-02-01 04:53:00,20.0,17.0,-100.00,SSE,160,7.0,8.0,87,-99.99,,,-99.99,,2013-02-01 11:53:00,
2013-02-01 05:02:00,20.0,17.0,-100.00,SSE,150,9.0,12.0,87,-99.99,,,-99.99,,2013-02-01 12:02:00,
2013-02-01 05:12:00,20.0,17.0,-100.00,South,170,7.0,9.0,87,-99.99,,,-99.99,,2013-02-01 12:12:00,
2013-02-01 05:22:00,20.0,17.0,-100.00,SSW,195,7.0,9.0,87,-99.99,,,-99.99,,2013-02-01 12:22:00,
2013-02-01 05:32:00,20.0,17.0,-100.00,SSW,200,5.0,7.0,87,-99.99,,,-99.99,,2013-02-01 12:32:00,
2013-02-01 05:42:00,19.0,16.0,-100.00,SSW,200,7.0,9.0,87,-99.99,,,-99.99,,2013-02-01 12:42:00,
2013-02-01 05:52:00,20.0,17.0,-100.00,SSW,200,9.0,11.0,87,-99.99,,,-99.99,,2013-02-01 12:52:00,
2013-02-01 06:02:00,19.0,16.0,-100.00,South,190,7.0,11.0,87,-99.99,,,-99.99,,2013-02-01 13:02:00,
2013-02-01 06:11:00,19.0,16.0,-100.00,SSE,160,6.0,8.0,87,-99.99,,,-99.99,,2013-02-01 13:11:00,
2013-02-01 06:22:00,19.0,16.0,-100.00,South,170,7.0,9.0,87,-99.99,,,-99.99,,2013-02-01 13:22:00,
2013-02-01 06:32:00,19.0,16.0,-100.00,South,170,7.0,9.0,87,-99.99,,,-99.99,,2013-02-01 13:32:00,
2013-02-01 06:42:00,19.0,16.0,-100.00,South,180,6.0,9.0,87,-99.99,,,-99.99,,2013-02-01 13:42:00,
2013-02-01 06:52:00,18.0,15.0,-100.00,South,175,6.0,8.0,87,-99.99,,,-99.99,,2013-02-01 13:52:00,
2013-02-01 07:03:00,17.0,14.0,-100.00,South,175,7.0,8.0,87,-99.99,,,-99.99,,2013-02-01 14:03:00,
2013-02-01 07:11:00,18.0,15.0,-100.00,SSE,160,6.0,9.0,87,-99.99,,,-99.99,,2013-02-01 14:11:00,
2013-02-01 07:21:00,19.0,15.0,-100.00,SE,135,6.0,12.0,86,-99.99,,,-99.99,,2013-02-01 14:21:00,
2013-02-01 07:32:00,17.0,14.0,-100.00,ESE,115,5.0,10.0,86,-99.99,,,-99.99,,2013-02-01 14:32:00,
2013-02-01 07:42:00,18.0,14.0,-100.00,SE,145,5.0,9.0,86,-99.99,,,-99.99,,2013-02-01 14:42:00,
2013-02-01 07:52:00,19.0,15.0,-100.00,SSE,150,6.0,9.0,86,-99.99,,,-99.99,,2013-02-01 14:52:00,
2013-02-01 08:02:00,20.0,16.0,-100.00,SE,145,6.0,9.0,85,-99.99,,,-99.99,,2013-02-01 15:02:00,
2013-02-01 08:12:00,20.0,17.0,-100.00,SSE,155,5.0,7.0,85,-99.99,,,-99.99,,2013-02-01 15:12:00,
2013-02-01 08:21:00,21.0,17.0,-100.00,SSE,150,9.0,11.0,85,-99.99,,,-99.99,,2013-02-01 15:21:00,
2013-02-01 08:32:00,22.0,18.0,-100.00,SSE,150,9.0,11.0,85,-99.99,,,-99.99,,2013-02-01 15:32:00,
2013-02-01 08:42:00,22.0,19.0,-100.00,SSE,155,7.0,10.0,83,-99.99,,,-99.99,,2013-02-01 15:42:00,
2013-02-01 08:51:00,23.0,19.0,-100.00,SSE,155,7.0,10.0,83,-99.99,,,-99.99,,2013-02-01 15:51:00,
2013-02-01 09:02:00,25.0,20.0,-100.00,SSE,155,7.0,9.0,81,-99.99,,,-99.99,,2013-02-01 16:02:00,
2013-02-01 09:11:00,28.0,22.0,-100.00,South,180,7.0,9.0,78,-99.99,,,-99.99,,2013-02-01 16:11:00,
2013-02-01 09:22:00,29.0,22.0,-100.00,SW,225,5.0,7.0,74,-99.99,,,-99.99,,2013-02-01 16:22:00,
2013-02-01 09:33:00,30.0,21.0,-100.00,SSE,160,6.0,7.0,68,-99.99,,,-99.99,,2013-02-01 16:33:00,
2013-02-01 09:42:00,30.0,21.0,-100.00,SSE,150,4.0,8.0,68,-99.99,,,-99.99,,2013-02-01 16:42:00,
2013-02-01 09:52:00,32.0,23.0,-100.00,SW,225,4.0,6.0,70,-99.99,,,-99.99,,2013-02-01 16:52:00,
2013-02-01 10:02:00,33.0,23.0,-100.00,SSW,210,3.0,6.0,66,-99.99,,,-99.99,,2013-02-01 17:02:00,
2013-02-01 10:11:00,35.0,23.0,-100.00,SSW,210,2.0,5.0,62,-99.99,,,-99.99,,2013-02-01 17:11:00,
2013-02-01 10:22:00,35.0,22.0,-100.00,SSE,150,3.0,6.0,57,-99.99,,,-99.99,,2013-02-01 17:22:00,
2013-02-01 10:32:00,36.0,22.0,-100.00,SE,145,2.0,6.0,54,-99.99,,,-99.99,,2013-02-01 17:32:00,
2013-02-01 10:42:00,37.0,20.0,-100.00,SE,140,5.0,7.0,51,-99.99,,,-99.99,,2013-02-01 17:42:00,
2013-02-01 10:52:00,38.0,22.0,-100.00,SE,145,2.0,7.0,51,-99.99,,,-99.99,,2013-02-01 17:52:00,
2013-02-01 11:02:00,40.0,22.0,-100.00,East,85,3.0,6.0,49,-99.99,,,-99.99,,2013-02-01 18:02:00,
2013-02-01 11:12:00,41.0,23.0,-100.00,SE,135,4.0,7.0,47,-99.99,,,-99.99,,2013-02-01 18:12:00,
2013-02-01 11:22:00,42.0,21.0,-100.00,SSE,160,6.0,8.0,43,-99.99,,,-99.99,,2013-02-01 18:22:00,
2013-02-01 11:32:00,43.0,21.0,-100.00,SE,125,7.0,9.0,41,-99.99,,,-99.99,,2013-02-01 18:32:00,
2013-02-01 11:42:00,44.0,20.0,-100.00,SE,145,6.0,9.0,37,-99.99,,,-99.99,,2013-02-01 18:42:00,
2013-02-01 11:52:00,46.0,20.0,-100.00,SSE,165,4.0,7.0,35,-99.99,,,-99.99,,2013-02-01 18:52:00,
2013-02-01 12:02:00,47.0,20.0,-100.00,SSE,155,6.0,7.0,33,-99.99,,,-99.99,,2013-02-01 19:02:00,
2013-02-01 12:11:00,47.0,19.0,-100.00,SE,140,5.0,9.0,31,-99.99,,,-99.99,,2013-02-01 19:11:00,
2013-02-01 12:21:00,48.0,19.0,-100.00,SE,145,7.0,9.0,30,-99.99,,,-99.99,,2013-02-01 19:21:00,
2013-02-01 12:32:00,49.0,18.0,-100.00,SE,145,7.0,10.0,28,-99.99,,,-99.99,,2013-02-01 19:32:00,
2013-02-01 12:41:00,48.0,17.0,-100.00,SE,125,9.0,14.0,28,-99.99,,,-99.99,,2013-02-01 19:41:00,
2013-02-01 12:51:00,48.0,16.0,-100.00,SE,140,12.0,14.0,26,-99.99,,,-99.99,,2013-02-01 19:51:00,
2013-02-01 13:02:00,50.0,16.0,-100.00,SE,125,9.0,15.0,25,-99.99,,,-99.99,,2013-02-01 20:02:00,
2013-02-01 13:11:00,51.0,16.0,-100.00,SE,145,7.0,12.0,24,-99.99,,,-99.99,,2013-02-01 20:11:00,
2013-02-01 13:21:00,51.0,16.0,-100.00,SE,145,7.0,12.0,24,-99.99,,,-99.99,,2013-02-01 20:21:00,
2013-02-01 13:31:00,53.0,15.0,-100.00,South,175,8.0,13.0,21,-99.99,,,-99.99,,2013-02-01 20:31:00,
2013-02-01 13:41:00,53.0,15.0,-100.00,South,185,9.0,15.0,21,-99.99,,,-99.99,,2013-02-01 20:41:00,
2013-02-01 13:52:00,53.0,15.0,-100.00,South,190,7.0,16.0,21,-99.99,,,-99.99,,2013-02-01 20:52:00,
2013-02-01 14:02:00,52.0,13.0,-100.00,South,175,7.0,17.0,20,-99.99,,,-99.99,,2013-02-01 21:02:00,
2013-02-01 14:12:00,52.0,13.0,-100.00,South,190,6.0,13.0,21,-99.99,,,-99.99,,2013-02-01 21:12:00,
2013-02-01 14:21:00,51.0,14.0,-100.00,South,185,17.0,20.0,21,-99.99,,,-99.99,,2013-02-01 21:21:00,
2013-02-01 14:31:00,51.0,13.0,-100.00,SSW,205,14.0,24.0,21,-99.99,,,-99.99,,2013-02-01 21:31:00,
2013-02-01 14:41:00,50.0,13.0,-100.00,SSW,210,14.0,21.0,22,-99.99,,,-99.99,,2013-02-01 21:41:00,
2013-02-01 14:52:00,51.0,14.0,-100.00,SW,215,17.0,24.0,21,-99.99,,,-99.99,,2013-02-01 21:52:00,
2013-02-01 15:02:00,50.0,13.0,-100.00,SW,230,17.0,22.0,22,-99.99,,,-99.99,,2013-02-01 22:02:00,
2013-02-01 15:11:00,51.0,15.0,-100.00,SW,220,17.0,23.0,22,-99.99,,,-99.99,,2013-02-01 22:11:00,
2013-02-01 15:21:00,52.0,14.0,-100.00,SW,215,15.0,24.0,22,-99.99,,,-99.99,,2013-02-01 22:21:00,
2013-02-01 15:32:00,52.0,14.0,-100.00,SW,215,15.0,24.0,22,-99.99,,,-99.99,,2013-02-01 22:32:00,
2013-02-01 15:42:00,51.0,13.0,-100.00,SSW,200,21.0,27.0,21,-99.99,,,-99.99,,2013-02-01 22:42:00,
2013-02-01 15:51:00,50.0,13.0,-100.00,SSW,210,14.0,25.0,22,-99.99,,,-99.99,,2013-02-01 22:51:00,
2013-02-01 16:01:00,49.0,13.0,-100.00,SW,220,16.0,27.0,22,-99.99,,,-99.99,,2013-02-01 23:01:00,
2013-02-01 16:11:00,51.0,14.0,-100.00,SSW,210,24.0,30.0,22,-99.99,,,-99.99,,2013-02-01 23:11:00,
2013-02-01 16:21:00,50.0,14.0,-100.00,SW,215,22.0,32.0,22,-99.99,,,-99.99,,2013-02-01 23:21:00,
2013-02-01 16:31:00,50.0,13.0,-100.00,SW,215,23.0,32.0,22,-99.99,,,-99.99,,2013-02-01 23:31:00,
2013-02-01 16:41:00,49.0,13.0,-100.00,SSW,205,21.0,30.0,22,-99.99,,,-99.99,,2013-02-01 23:41:00,
2013-02-01 16:52:00,48.0,12.0,-100.00,SW,215,21.0,29.0,23,-99.99,,,-99.99,,2013-02-01 23:52:00,
2013-02-01 17:02:00,47.0,12.0,-100.00,SSW,210,19.0,29.0,23,-99.99,,,-99.99,,2013-02-02 00:02:00,
2013-02-01 17:11:00,46.0,11.0,-100.00,SW,220,21.0,30.0,24,-99.99,,,-99.99,,2013-02-02 00:11:00,
2013-02-01 17:21:00,45.0,12.0,-100.00,SW,220,21.0,27.0,25,-99.99,,,-99.99,,2013-02-02 00:21:00,
2013-02-01 17:32:00,44.0,12.0,-100.00,SW,220,20.0,28.0,26,-99.99,,,-99.99,,2013-02-02 00:32:00,
2013-02-01 17:41:00,44.0,12.0,-100.00,SW,220,18.0,25.0,27,-99.99,,,-99.99,,2013-02-02 00:41:00,
2013-02-01 17:52:00,43.0,12.0,-100.00,SW,215,17.0,22.0,28,-99.99,,,-99.99,,2013-02-02 00:52:00,
2013-02-01 18:02:00,42.0,13.0,-100.00,SW,215,14.0,20.0,29,-99.99,,,-99.99,,2013-02-02 01:02:00,
2013-02-01 18:11:00,41.0,12.0,-100.00,SW,235,11.0,15.0,30,-99.99,,,-99.99,,2013-02-02 01:11:00,
2013-02-01 18:21:00,38.0,12.0,-100.00,WSW,245,9.0,13.0,33,-99.99,,,-99.99,,2013-02-02 01:21:00,
2013-02-01 18:32:00,36.0,12.0,-100.00,West,270,7.0,9.0,36,-99.99,,,-99.99,,2013-02-02 01:32:00,
2013-02-01 18:41:00,37.0,14.0,-100.00,West,275,9.0,18.0,38,-99.99,,,-99.99,,2013-02-02 01:41:00,
2013-02-01 18:52:00,35.0,15.0,-100.00,West,265,9.0,10.0,43,-99.99,,,-99.99,,2013-02-02 01:52:00,
2013-02-01 19:01:00,38.0,18.0,-100.00,SW,230,12.0,16.0,43,-99.99,,,-99.99,,2013-02-02 02:01:00,
2013-02-01 19:11:00,39.0,18.0,-100.00,SW,215,16.0,21.0,43,-99.99,,,-99.99,,2013-02-02 02:11:00,
2013-02-01 19:21:00,38.0,19.0,-100.00,SW,220,13.0,19.0,45,-99.99,,,-99.99,,2013-02-02 02:21:00,
2013-02-01 19:31:00,38.0,20.0,-100.00,SW,230,17.0,21.0,47,-99.99,,,-99.99,,2013-02-02 02:31:00,
2013-02-01 19:41:00,38.0,21.0,-100.00,SW,230,17.0,22.0,48,-99.99,,,-99.99,,2013-02-02 02:41:00,
2013-02-01 19:52:00,37.0,21.0,-100.00,WSW,240,14.0,20.0,51,-99.99,,,-99.99,,2013-02-02 02:52:00,
2013-02-01 20:02:00,36.0,21.0,-100.00,WSW,240,11.0,16.0,52,-99.99,,,-99.99,,2013-02-02 03:02:00,
2013-02-01 20:11:00,36.0,21.0,-100.00,WSW,240,11.0,16.0,52,-99.99,,,-99.99,,2013-02-02 03:11:00,
2013-02-01 20:21:00,35.0,20.0,-100.00,WSW,240,10.0,13.0,54,-99.99,,,-99.99,,2013-02-02 03:21:00,
2013-02-01 20:32:00,35.0,20.0,-100.00,WSW,255,11.0,16.0,55,-99.99,,,-99.99,,2013-02-02 03:32:00,
2013-02-01 20:42:00,33.0,19.0,-100.00,West,270,7.0,11.0,55,-99.99,,,-99.99,,2013-02-02 03:42:00,
2013-02-01 20:51:00,32.0,19.0,-100.00,NW,320,2.0,8.0,59,-99.99,,,-99.99,,2013-02-02 03:51:00,
2013-02-01 21:01:00,31.0,20.0,-100.00,North,5,5.0,7.0,60,-99.99,,,-99.99,,2013-02-02 04:01:00,
2013-02-01 21:11:00,32.0,20.0,-100.00,NNE,15,6.0,9.0,61,-99.99,,,-99.99,,2013-02-02 04:11:00,
2013-02-01 21:21:00,32.0,21.0,-100.00,NNW,335,4.0,7.0,62,-99.99,,,-99.99,,2013-02-02 04:21:00,
2013-02-01 21:32:00,31.0,20.0,-100.00,NW,305,6.0,9.0,63,-99.99,,,-99.99,,2013-02-02 04:32:00,
2013-02-01 21:41:00,30.0,21.0,-100.00,NW,305,6.0,9.0,69,-99.99,,,-99.99,,2013-02-02 04:41:00,
2013-02-01 21:51:00,30.0,22.0,-100.00,WNW,300,6.0,7.0,71,-99.99,,,-99.99,,2013-02-02 04:51:00,
2013-02-01 22:03:00,29.0,21.0,-100.00,WNW,300,5.0,7.0,72,-99.99,,,-99.99,,2013-02-02 05:03:00,
2013-02-01 22:12:00,29.0,22.0,-100.00,NW,310,5.0,6.0,74,-99.99,,,-99.99,,2013-02-02 05:12:00,
2013-02-01 22:22:00,29.0,23.0,-100.00,NW,305,7.0,7.0,76,-99.99,,,-99.99,,2013-02-02 05:22:00,
2013-02-01 22:33:00,29.0,23.0,-100.00,NW,305,6.0,7.0,78,-99.99,,,-99.99,,2013-02-02 05:33:00,
2013-02-01 22:41:00,29.0,23.0,-100.00,NW,320,2.0,6.0,78,-99.99,,,-99.99,,2013-02-02 05:41:00,
2013-02-01 22:52:00,29.0,24.0,-100.00,NNW,335,0.0,3.0,79,-99.99,,,-99.99,,2013-02-02 05:52:00,
2013-02-01 23:02:00,28.0,23.0,-100.00,East,100,1.0,2.0,80,-99.99,,,-99.99,,2013-02-02 06:02:00,
2013-02-01 23:12:00,28.0,23.0,-100.00,East,100,0.0,1.0,80,-99.99,,,-99.99,,2013-02-02 06:12:00,
2013-02-01 23:21:00,28.0,23.0,-100.00,ESE,105,1.0,2.0,81,-99.99,,,-99.99,,2013-02-02 06:21:00,
2013-02-01 23:31:00,26.0,22.0,-100.00,ESE,115,4.0,5.0,85,-99.99,,,-99.99,,2013-02-02 06:31:00,
2013-02-01 23:41:00,26.0,22.0,-100.00,ESE,110,6.0,6.0,86,-99.99,,,-99.99,,2013-02-02 06:41:00,
2013-02-01 23:51:00,25.0,21.0,-100.00,East,100,7.0,7.0,87,-99.99,,,-99.99,,2013-02-02 06:51:00,